Location: Bessat
(45.8735°N, 1.9924°E)
Time: 08:36:21
(UTC+00:00)

Meteor 1-10 Rocket - Pass Details

Date: 11 May 2021
Orbit: 837 x 909 km, 81.3° (Epoch: 20 June)

Event Time Altitude Azimuth Distance (km) Brightness Sun altitude
Exits shadow 21:05:33 23° 163° (SSE) 1,730 5.3 -16.2°
Maximum altitude 21:08:56 54° 95° (E) 1,022 4.4 -16.5°
Drops below altitude 10° 21:14:26 10° 19° (NNE) 2,506 7.1 -17.1°
Sets 21:16:56 0° 15° (NNE) 3,459 7.9 -17.4°
